Estació municipal de El Brull (Osona, P.N. del Montseny)

Consulta les dades en temps real de l'estació municipal de El Brull





Hora UTC 20:30
Temperatura 20.1 ºC
Humitat 75.6 %
Pressió 1022.1 hPa
Pluja 0.0 mm
Velocitat vent 1.9 km/h
Direcció vent NE
Radiació solar 0.0 W/m²

Webcam

Dades diàries 2026-09-01



Hora UTC (hivern +1h; estiu +2h)
Temperatura (ºC) Humitat (%) Pressió (hPa) Velocitat vent (km/h) Precipitació (mm) Radiació solar (W/m²)
Hora UTC Aire Humitat Pressió Vel. Dir. Vel. Max Dir. Intent. màx 5 min. Rad. Sol.
00:10 18.6 84.1 1023.5 1.2 SSW 3.6 S 0.0 0.0
00:30 18.5 85.7 1023.4 1.1 SE 2.9 SE 0.0 0.0
00:50 18.4 86.6 1023.4 2.9 S 5.4 S 0.0 0.0
01:00 18.6 87.3 1023.4 3.7 S 6.7 SSW 0.0 0.0
01:10 18.6 87.7 1023.4 4.3 SSW 7.4 SSW 0.0 0.0
01:20 18.6 88.2 1023.3 2.9 SSW 5.3 SSW 0.0 0.0
01:30 18.5 88.6 1023.4 3.6 SSW 8.1 SSW 0.0 0.0
01:40 18.4 89.0 1023.4 2.9 SSW 5.3 SSW 0.0 0.0
01:50 18.3 89.3 1023.4 2.6 S 6.0 SSE 0.0 0.0
02:00 18.3 89.0 1023.3 3.2 S 5.3 S 0.0 0.0
02:10 18.3 88.8 1023.3 2.8 SSW 5.3 S 0.0 0.0
02:20 18.3 88.7 1023.3 3.1 S 4.9 SW 0.0 0.0
02:30 18.3 89.0 1023.2 3.6 S 6.0 S 0.0 0.0
02:40 18.4 89.3 1023.0 2.2 S 4.4 S 0.0 0.0
02:50 18.4 89.5 1023.0 1.6 SSW 3.1 SSW 0.0 0.0
03:00 18.5 89.3 1023.0 1.9 S 2.9 SSE 0.0 0.0
03:10 18.4 89.3 1022.9 1.9 S 2.7 S 0.0 0.0
03:20 18.3 88.9 1022.8 2.2 SSE 3.1 SSE 0.0 0.0
03:30 18.1 88.6 1022.7 1.4 SSE 4.2 SSE 0.0 0.0
03:40 18.0 89.0 1022.7 0.5 SSW 3.5 SSW 0.0 0.0
03:50 17.8 88.9 1022.6 0.0 SSE 0.9 S 0.0 0.0
04:00 17.9 89.6 1022.6 1.3 SE 2.4 SSE 0.0 0.0
04:10 17.9 89.8 1022.6 1.2 ESE 4.1 ESE 0.0 0.0
04:20 17.9 89.6 1022.5 2.0 SE 4.4 ESE 0.0 0.0
04:30 18.0 89.5 1022.5 1.7 ESE 4.0 ESE 0.0 0.0
04:40 18.0 89.0 1022.4 1.6 SE 3.9 SE 0.0 0.0
04:50 17.9 88.3 1022.4 3.1 SE 5.6 SE 0.0 0.0
05:00 17.7 87.9 1022.4 1.6 ESE 3.6 SE 0.0 0.2
05:10 17.5 88.4 1022.4 2.0 ESE 3.5 ESE 0.0 1.2
05:20 17.5 88.8 1022.4 1.8 ESE 3.5 ESE 0.0 3.5
05:30 17.4 88.8 1022.5 1.1 ESE 3.4 ESE 0.0 7.6
05:40 17.5 88.5 1022.6 1.1 E 3.4 ESE 0.0 13.0
05:50 17.6 88.1 1022.6 1.1 ESE 2.4 SE 0.0 23.4
06:00 17.8 87.1 1022.6 1.0 ESE 4.0 SE 0.0 30.2
06:10 17.9 86.2 1022.6 0.9 SE 3.2 SE 0.0 30.8
06:30 18.4 85.9 1022.7 2.1 SSE 5.5 SSE 0.0 47.3
06:40 18.7 84.5 1022.7 3.0 SSE 5.6 SSE 0.0 127.2
06:50 19.2 82.8 1022.8 3.1 SSE 5.9 S 0.0 191.7
07:00 20.1 79.8 1022.8 2.0 S 4.8 SE 0.0 222.4
07:10 20.9 77.5 1022.8 2.4 S 4.9 SSE 0.0 255.9
07:20 21.1 76.5 1022.9 1.4 WNW 3.9 W 0.0 288.2
07:30 22.3 72.9 1023.0 1.1 SW 5.2 N 0.0 328.6
07:40 22.7 71.2 1022.8 1.7 N 5.2 NW 0.0 351.1
07:50 23.1 70.3 1022.7 2.3 NE 8.1 NNE 0.0 385.0
08:00 23.6 68.4 1022.7 2.7 N 10.0 N 0.0 416.7
08:10 23.8 67.2 1022.7 1.3 NNW 6.1 NW 0.0 443.4
08:20 24.0 66.2 1022.8 3.2 NNW 10.9 NNW 0.0 473.3
08:30 24.2 65.6 1022.8 1.8 NW 5.8 SE 0.0 501.4
08:40 24.0 66.1 1022.8 3.9 NW 10.4 W 0.0 529.7
08:50 24.2 65.8 1022.8 3.4 NNW 10.8 NNW 0.0 557.0
09:00 25.2 62.8 1022.8 3.4 NNW 11.5 N 0.0 585.1
09:10 25.1 63.0 1022.9 3.2 NW 8.9 N 0.0 609.5
09:20 24.8 63.0 1023.0 4.7 NW 9.8 WNW 0.0 631.6
09:30 24.8 62.8 1023.0 4.3 WSW 11.2 W 0.0 655.7
09:40 25.7 56.9 1023.0 6.6 S 17.3 S 0.0 677.9
10:00 27.1 54.9 1023.0 10.9 SSW 22.6 SSW 0.0 715.8
10:10 26.5 57.7 1023.1 12.1 SSW 22.5 SW 0.0 737.3
10:20 26.4 57.7 1023.2 12.2 SSW 24.2 SSW 0.0 758.7
10:30 26.4 57.3 1023.1 11.8 SSW 26.6 SSW 0.0 794.7
10:40 26.4 57.1 1023.2 13.0 SSW 27.4 SSW 0.0 763.6
10:50 26.2 56.9 1023.2 13.1 SSW 29.2 SSW 0.0 802.0
11:00 26.6 56.0 1023.1 12.4 SSW 28.8 SW 0.0 807.0
11:10 26.7 54.6 1023.2 12.1 SSW 23.3 S 0.0 810.0
11:20 26.7 54.3 1023.2 12.7 SSW 24.7 SSW 0.0 812.0
11:30 27.0 53.2 1023.3 12.9 SSW 27.3 S 0.0 817.0
11:40 26.7 53.3 1023.2 13.7 SSW 26.3 SW 0.0 818.0
11:50 26.7 52.8 1023.1 12.3 SSW 26.6 SSW 0.0 820.0
12:00 26.9 53.2 1023.2 12.6 SSW 23.8 SSW 0.0 817.0
12:10 26.9 53.5 1023.1 11.1 SSW 24.0 SSW 0.0 818.0
12:20 27.4 52.5 1023.0 11.2 SSW 21.9 SW 0.0 807.0
12:30 26.1 54.0 1023.1 9.3 SSW 22.9 S 0.0 297.9
12:40 25.9 56.3 1023.1 11.6 S 25.9 S 0.0 608.7
12:50 25.6 57.4 1023.1 11.6 SSW 22.7 S 0.0 675.5
13:00 25.5 58.5 1023.0 10.1 SSW 20.7 SSW 0.0 462.2
13:10 26.2 57.6 1022.9 9.3 SSW 21.5 SSW 0.0 610.4
13:20 26.2 58.7 1022.8 10.2 SSW 23.4 SSW 0.0 523.3
13:30 25.9 59.9 1022.8 8.5 SSW 19.9 S 0.0 583.7
13:40 25.9 60.5 1022.7 12.5 SSW 23.6 SSW 0.0 444.9
13:50 25.3 62.9 1022.5 7.7 SW 20.1 SSW 0.0 244.9
14:00 24.6 64.5 1022.3 8.8 SSW 19.2 SSW 0.0 230.8
14:10 24.8 65.1 1022.0 9.4 SSW 17.2 SW 0.0 576.8
14:30 25.6 62.8 1022.1 9.4 SSW 18.6 S 0.0 561.8
14:40 26.5 59.9 1022.1 10.2 S 20.3 SSW 0.0 536.6
14:50 25.4 62.2 1022.1 9.4 SSW 17.8 S 0.0 346.3
15:00 25.6 62.8 1021.7 10.0 SSW 23.5 SSW 0.0 530.4
15:10 25.5 62.5 1021.9 7.3 SW 19.5 SSW 0.0 287.4
15:20 24.5 65.6 1021.9 9.7 SSW 23.6 SW 0.0 196.3
15:30 23.9 67.8 1021.7 12.2 SSW 23.1 SSW 0.0 415.3
15:40 24.0 67.5 1022.0 11.9 SSW 24.7 SSW 0.0 435.7
15:50 24.1 67.0 1021.8 10.8 SSW 22.5 S 0.0 466.9
16:00 24.3 66.3 1021.7 9.2 SSW 19.9 SSW 0.0 397.5
16:10 24.3 66.2 1021.7 7.4 SW 16.5 S 0.0 217.8
16:20 23.1 70.3 1021.7 8.4 SSW 17.2 SSW 0.0 121.3
16:30 23.2 70.9 1021.9 10.2 SSW 20.8 SW 0.0 330.6
16:40 22.8 72.1 1022.0 10.5 SSW 22.6 SSW 0.0 82.6
16:50 22.3 73.4 1021.8 10.9 SSW 20.5 S 0.0 86.1
17:00 22.1 74.6 1021.7 9.0 SSW 20.0 SW 0.0 77.9
17:10 22.2 74.8 1021.5 6.7 SSW 17.3 S 0.0 59.8
17:20 22.1 74.5 1021.5 6.8 SSW 13.8 SSW 0.0 59.6
17:30 22.0 74.8 1021.6 7.2 SSW 16.9 SSW 0.0 65.6
17:40 21.8 75.3 1021.7 9.7 SSW 19.9 SSW 0.0 54.5
17:50 21.5 75.6 1021.6 9.6 SSW 18.3 SSW 0.0 52.1
18:00 21.3 75.5 1021.5 9.0 S 16.6 SSW 0.0 24.1
18:10 21.1 76.4 1021.4 7.5 S 13.5 SSE 0.0 18.6
18:20 20.9 76.9 1021.3 4.6 SSW 8.0 S 0.0 8.1
18:30 20.7 77.4 1021.3 4.0 S 8.1 S 0.0 2.4
18:40 20.3 78.2 1021.1 3.5 SE 5.3 SE 0.0 1.1
18:50 20.2 78.6 1021.2 3.6 ESE 6.8 SE 0.0 0.2
19:00 20.5 78.4 1021.2 1.4 ESE 4.5 SE 0.0 0.0
19:10 20.7 75.7 1021.3 1.5 ENE 4.7 ENE 0.0 0.0
19:20 20.9 73.6 1021.5 0.7 ENE 4.2 ENE 0.0 0.0
19:30 21.1 72.8 1021.6 3.3 NE 5.9 ENE 0.0 0.0
19:40 21.4 71.3 1021.8 0.8 NE 3.6 ENE 0.0 0.0
19:50 21.2 72.1 1021.9 1.0 NNE 2.8 N 0.0 0.0
20:00 20.7 73.7 1022.1 0.0 NNE 0.0 0.0 0.0
20:10 20.6 73.6 1022.1 0.2 ENE 2.0 E 0.0 0.0
20:20 20.4 74.2 1022.1 0.6 ENE 2.2 NE 0.0 0.0
20:30 20.1 75.6 1022.1 1.9 NE 3.4 NE 0.0 0.0
Màxima 27.4 89.8 1023.5 13.7 SSW 29.2 SSW 0.0 820.0
Mínima 17.4 52.5 1021.1
Total 0.0